Weather in Shortandy

Kazakhstan     51°41′52″N   70°59′51″E
temp.,
°C
wind,
m/s
gust,
m/s
humid.,
%
clouds,
%
prec.,
mm/h
press.,
hPa
HPBL,
m
9 march, tue
tue923:00−16sw6128826 0.0 1026246
02:00−16sw7138752 0.0 1026261
05:00−16sw7138629 0.0 1026257
08:00−16ssw7128536 0.0 1025241
11:00−12sw7118343 0.0 1024309
14:00−10sw6108434 0.0 1023328
17:00−11ssw598766 0.0 1021203
20:00−13ssw478445 0.0 1021109
10 march, wed
wed1023:00−11s358273 0.0 1020100
02:00−13sse2378100 0.0 101724
05:00−11ese4780100 0.0 1012136
08:00−6ese71296100 1.8 1006405
11:00+1ssw814100100 6.9 1002583
14:00−3wsw91293100 0.5 1002562
17:00−7w8149199 0.6 1006573
20:00−10wsw71594100 0.1 1010447
11 march, thu
thu1123:00−9sw81592100 0.2 1010608
02:00−10wsw81492100 0.2 1011692
05:00−14sw71592100 0.3 1013434
08:00−15sw7139370 0.0 1014328
11:00−11ssw7128674 0.0 1012471
14:00−5wsw8129584 1.7 1010908
17:00−10wsw10158492 2.0 10131138
20:00−15wsw8179097 0.0 1017715
12 march, fri
fri1223:00−18wsw9169298 0.1 1018662
02:00−20wsw81595100 0.0 1020455
05:00−22wsw71497100 0.1 1021338
08:00−23wsw61298100 0.0 1023303
11:00−20wsw71196100 0.1 1025399
14:00−17wsw699192 0.0 1026420
17:00−18wsw599361 0.0 1026307
20:00−22wsw45964 0.0 102885
13 march, sat
sat1323:00−23wsw44972 0.0 103055
02:00−24wsw34980 0.0 103138
05:00−25wsw34980 0.0 103137
08:00−24wsw34940 0.0 103259
11:00−18wsw35890 0.0 1032200
14:00−15wsw45860 0.0 1031258
17:00−17wsw23910 0.0 103122
20:00−21wsw22910 0.0 103220